Weather History for New Philadelphia, OH

Change the Weather History Date:

Friday, October 28, 2011

  Actual Average Record
Temperature  
Mean Temperature 39 °F 49 °F  
Max Temperature 46 °F 60 °F 80 °F (1984)
Min Temperature 33 °F 37 °F 19 °F (1962)
Degree Days  
Heating Degree Days 26 16  
Month to date heating degree days 342  
Since 1 July heating degree days 448  
Cooling Degree Days 0 0  
Month to date cooling degree days 9  
Year to date cooling degree days 697  
Moisture  
Dew Point 32 °F    
Average Humidity 84    
Maximum Humidity 100    
Minimum Humidity 51    
Precipitation  
Precipitation 0.00 in 0.10 in 0.79 in (2012)
Month to date precipitation 2.50  
Year to date precipitation 32.71  
Sea Level Pressure  
Sea Level Pressure 30.19 in    
Wind  
Wind Speed 1 mph (SE)    
Max Wind Speed 7 mph    
Max Gust Speed -    
Visibility 5 miles    
Events Fog    
T = Trace of Precipitation, MM = Missing Value Source: NWS Daily Summary

Daily Weather History Graph

Daily Weather History Graph

Search for Another Location

Airport:

Trip Planner

Search our weather history database for the weather conditions in past years. The results will help you decide how hot, cold, wet, or windy it might be!

Date:

Astronomy

Oct. 28, 2011 Rise Set
Actual Time 7:50 AM EDT 6:27 PM EDT
Civil Twilight 7:22 AM EDT 6:55 PM EDT
Nautical Twilight 6:50 AM EDT 7:27 PM EDT
Astronomical Twilight 6:18 AM EDT 7:59 PM EDT
Moon 10:05 AM EDT (10/28) 7:48 PM EDT (10/28)
Length of Visible Light 11h 33m
Length of Day
10h 37m
Waxing Crescent, 5% of the Moon is Illuminated
Oct 28
Waxing Crescent
Nov 2
First Quarter
Nov 10
Full
Nov 18
Last Quarter
Nov 25
New

Hourly Weather History & Observations

Time (EDT) Temp. Windchill Dew Point Humidity Pressure Visibility Wind Dir Wind Speed Gust Speed Precip Events Conditions
12:06 AM 33.8 °F - 33.8 °F 100% 30.13 in 1.0 mi Calm Calm - N/A   Mist
12:17 AM 33.8 °F - 32.0 °F 93% 30.13 in 0.8 mi Calm Calm - N/A   Mist
12:38 AM 33.8 °F - 32.0 °F 93% 30.14 in 1.0 mi Calm Calm - N/A   Overcast
12:42 AM 33.8 °F 30.8 °F 32.0 °F 93% 30.14 in 0.8 mi SE 3.5 mph - N/A   Overcast
12:51 AM 33.8 °F 30.8 °F 32.0 °F 93% 30.14 in 0.5 mi SSE 3.5 mph - N/A Fog Fog
12:53 AM 34.0 °F 31.0 °F 32.0 °F 92% 30.16 in 0.5 mi SSE 3.5 mph - N/A Fog Fog
1:03 AM 33.8 °F 29.6 °F 32.0 °F 93% 30.14 in 0.2 mi SSE 4.6 mph - N/A Fog Fog
1:53 AM 35.1 °F - 33.1 °F 92% 30.17 in 0.2 mi Calm Calm - N/A Fog Fog
2:53 AM 33.1 °F - 30.9 °F 92% 30.18 in 0.2 mi Calm Calm - N/A Fog Fog
4:53 AM 34.0 °F - 33.1 °F 96% 30.20 in 0.2 mi Calm Calm - N/A Fog Fog
6:53 AM 33.1 °F - 32.0 °F 96% 30.21 in 0.2 mi Calm Calm - N/A Fog Fog
7:53 AM 33.1 °F - 32.0 °F 96% 30.23 in 0.2 mi Calm Calm - N/A Fog Fog
8:53 AM 34.0 °F - 32.0 °F 92% 30.25 in 0.2 mi Calm Calm - N/A Fog Fog
9:53 AM 35.1 °F - 33.1 °F 92% 30.26 in 0.2 mi Calm Calm - N/A Fog Fog
10:16 AM 35.6 °F - 33.8 °F 93% 30.24 in 1.2 mi Calm Calm - N/A   Overcast
10:53 AM 37.0 °F - 35.1 °F 93% 30.27 in 2.0 mi Calm Calm - N/A   Overcast
11:04 AM 37.4 °F - 35.6 °F 93% 30.24 in 5.0 mi Calm Calm - N/A   Mostly Cloudy
11:28 AM 39.2 °F - 35.6 °F 87% 30.24 in 10.0 mi Calm Calm - N/A   Scattered Clouds
11:53 AM 41.0 °F - 35.1 °F 79% 30.25 in 10.0 mi Calm Calm - N/A   Partly Cloudy
1:53 PM 45.0 °F 41.8 °F 33.1 °F 63% 30.20 in 10.0 mi East 5.8 mph - N/A   Clear
2:53 PM 45.0 °F 41.8 °F 32.0 °F 60% 30.18 in 10.0 mi East 5.8 mph - N/A   Clear
3:53 PM 45.0 °F 42.6 °F 30.0 °F 56% 30.16 in 10.0 mi SSE 4.6 mph - N/A   Clear
4:53 PM 45.0 °F 41.2 °F 28.0 °F 52% 30.16 in 10.0 mi ESE 6.9 mph - N/A   Clear
5:53 PM 44.1 °F 42.5 °F 27.0 °F 51% 30.18 in 10.0 mi SE 3.5 mph - N/A   Clear
6:53 PM 41.0 °F - 30.0 °F 65% 30.18 in 10.0 mi Calm Calm - N/A   Clear
7:53 PM 39.0 °F - 30.9 °F 73% 30.19 in 10.0 mi Calm Calm - N/A   Clear
9:53 PM 37.9 °F - 33.1 °F 83% 30.17 in 10.0 mi Calm Calm - N/A   Overcast
10:53 PM 37.0 °F - 32.0 °F 82% 30.17 in 10.0 mi Calm Calm - N/A   Overcast
11:53 PM 37.9 °F - 32.0 °F 79% 30.14 in 10.0 mi Calm Calm - N/A   Overcast